{"data":{"norad_id":55429,"epoch":"2026-09-20T22:00:03.000096Z","epoch_age_seconds":60619,"freshness":"FRESH","line1":"1 55429U 23014AQ  26263.91670139  .00081241  00000+0  52627-2 0  9999","line2":"2 55429  70.0011 312.2215 0001055 353.7324  72.4732 15.07674478  5661","mean_motion":15.07674478,"eccentricity":0.0001055,"inclination_deg":70.0011,"raan_deg":312.2215,"arg_perigee_deg":353.7324,"mean_anomaly_deg":72.4732,"bstar":0.0052627,"rev_number":566,"period_min":95.511333581121,"perigee_km":542.57800581872,"apogee_km":544.03843075978,"semimajor_km":6921.4452182893,"source":"CELESTRAK","updated_at":"2026-09-21T09:00:33.221646Z"}}